HULIANWAN GAOGUI-01 (H*)

Last updated on Thu Sep 11 2025 00:02:51 GMT+0000 (Coordinated Universal Time)

1 59069U 24040A 25252.86364073 .00000154 00000+0 00000+0 0 9990 2 59069 0.0551 307.7572 0000529 307.7537 78.1681 1.00270085 4515
UTC large
Height (km)
Speed (km/s)
/
Latitude / Longitude
Inclination (degrees)
Orbital Period (minutes)
Azimuth
Elevation
Range (km)
Doppler Factor

Next 0 passes for location: London (51.5072 / 0.1276)

Sorry there are no passes over London.